This demonstration page uses our WeatherBlox Daily Observations layout. Learn more.

Left ArrowRight Arrow

Hourly Observations for October 23, 2020

Temp ( °F °C ) Dew Point ( °F °C ) Humidity (%) Winds ( mph kmh ) Pressure ( in mb ) Visibility ( mi km ) Precip ( " mm )
12:53 am 00:53 Cloudy 34 1.1 30 -1.1 85 85 N 21 33 30.24 1024 10 16 0.00 0.00
1:32 am 01:32 Cloudy 34 1.1 29 -1.7 82 82 N 20 31 30.30 1026 10 16 0.00 0.00
1:53 am 01:53 Cloudy 34 1.1 29 -1.7 82 82 N 17 28 30.27 1025 10 16 0.00 0.00
2:53 am 02:53 Cloudy 33 0.6 29 -1.7 85 85 N 21 33 30.29 1026 10 16 0.00 0.00
3:08 am 03:08 Cloudy 33 0.6 29 -1.7 85 85 N 21 33 30.34 1027 10 16 0.00 0.00
3:53 am 03:53 Cloudy 34 1.1 29 -1.7 82 82 N 23 37 30.32 1027 9 14 0.00 0.00
4:04 am 04:04 Cloudy 34 1 28 -2 81 81 N 18 30 30.35 1028 10 16 0.00 0.00
4:53 am 04:53 Cloudy 33 0.6 28 -2.2 82 82 N 20 31 30.33 1027 10 16 0.00 0.00
5:53 am 05:53 Cloudy 32 0 27 -2.8 82 82 N 23 37 30.37 1028 10 16 0.00 0.00
6:49 am 06:49 Cloudy 32 0 25 -4 75 75 N 28 44 30.42 1030 10 16 0.00 0.00
6:53 am 06:53 Cloudy 32 0 25 -3.9 75 75 N 26 43 30.38 1029 10 16 0.00 0.00
7:36 am 07:36 Partly Cloudy 31 -0.6 25 -3.9 79 79 N 16 26 30.43 1031 10 16 0.00 0.00
7:53 am 07:53 Mostly Cloudy 32 0 25 -3.9 75 75 N 20 31 30.40 1030 10 16 0.00 0.00
8:36 am 08:36 Cloudy 32 0 26 -3.3 79 79 N 20 31 30.47 1032 10 16 0.00 0.00
8:53 am 08:53 Mostly Cloudy 32 0 25 -3.9 75 75 N 18 30 30.44 1031 10 16 0.00 0.00
9:53 am 09:53 Cloudy 33 0.6 26 -3.3 75 75 N 24 39 30.47 1032 10 16 0.00 0.00
10:53 am 10:53 Cloudy 34 1.1 25 -3.9 70 70 N 21 33 30.49 1033 10 16 0.00 0.00
11:53 am 11:53 Cloudy 34 1.1 25 -3.9 70 70 N 18 30 30.51 1033 10 16 0.00 0.00
12:53 pm 12:53 Cloudy 34 1.1 24 -4.4 67 67 N 21 33 30.51 1033 10 16 0.00 0.00
1:53 pm 13:53 Cloudy 35 1.7 24 -4.4 64 64 N 18 30 30.50 1033 10 16 0.00 0.00
2:53 pm 14:53 Cloudy 35 1.7 25 -3.9 67 67 N 18 30 30.48 1032 10 16 0.00 0.00
3:53 pm 15:53 Cloudy 34 1.1 24 -4.4 67 67 N 15 24 30.48 1032 10 16 0.00 0.00
4:53 pm 16:53 Cloudy 34 1.1 24 -4.4 67 67 N 16 26 30.47 1032 10 16 0.00 0.00
5:53 pm 17:53 Cloudy 32 0 23 -5 69 69 N 10 17 30.47 1032 10 16 0.00 0.00
6:53 pm 18:53 Cloudy 32 0 23 -5 69 69 N 13 20 30.48 1032 10 16 0.00 0.00
7:53 pm 19:53 Cloudy 31 -0.6 22 -5.6 69 69 NNE 12 19 30.47 1032 10 16 0.00 0.00
8:53 pm 20:53 Cloudy 31 -0.6 22 -5.6 69 69 NNE 10 17 30.46 1032 10 16 0.00 0.00
9:53 pm 21:53 Cloudy 31 -0.6 22 -5.6 69 69 NE 10 17 30.45 1031 10 16 0.00 0.00
10:53 pm 22:53 Cloudy 30 -1.1 21 -6.1 69 69 E 5 7 30.45 1031 10 16 0.00 0.00
11:53 pm 23:53 Cloudy 30 -1.1 22 -5.6 72 72 E 7 11 30.43 1031 10 16 0.00 0.00

Powered by AerisWeather